STARLINK-3126, 49444

Orbit data source: Space-Track

STARLINK-3126, 49444 is a payload satellite owned by SpaceX/Seattle (US) in LEO that was launched on Sat, 13 Nov 2021 UTC via an FALCON 9 launch vehicle from the Air Force Eastern Test Range (AFETR). Payload-class satellites include a variety of spacecraft equipped with specific instruments for various scientific and technological missions. These include communications satellites like Starlink; space stations such as the ISS; scientific satellites like the Hubble; Earth observation satellites from companies like Planet Labs, Umbra, and HawkEye 360; GPS; miniature CubeSats for education and research; and military/defense satellites.

Loading next visibility...
Identifier
49444, 2021-104AN
Orbit
LEO
Country
Flag of USUS
Related business
Manufacturer
SpaceX/Seattle
Mission
Operational Commercial Communications
Bus & Motor
STARLINK, Unknown motor
Mass
290 kg wet, ~270 kg dry
Launch date (UTC)
2021-11-13 (5 years ago)
Launch vehicle
FALCON 9
Launch site
Air Force Eastern Test Range (AFETR)
Object type
Payload
Rocket body
Debris
Shape & HBR
Box + 1 Pan, 10.1 m
Radar Cross Section
13.562 m², Large (>1 m²)

Expand to show TLE details & history
Last TLE update: 1 week ago

TLE from 1 week ago
0 STARLINK-3126
1 49444U 21104AN  26154.33003585  .00001238  00000-0  95893-4 0  9990
2 49444  53.1814 184.6532 0001131  84.1157 275.9964 15.08826224251840
Epoch: 2026-06-03T07:55Z
TLE epoch observation values (Epoch: 2026-06-03T07:55:15.097Z)
Latitude
0.00001°
Longitude
174.0501°
Altitude
540.597 km
Speed
7.593 km/s
True Right ascension
12h 18m 36s
True Declination
0° 00' 00"
Sunlit
Object was in daylight at epoch
Visualization orbit readout
Latitude
Unknown
Longitude
Unknown
Altitude
Unknown
Speed
Unknown
Apparent Right ascension
Unknown
Apparent Declination
Unknown
Sunlit
N/A
Visualization observer readout
Local Sidereal Time
16:15:28
Azimuth
Unknown
Elevation
Unknown
Doppler factor
Unknown
Orbital elements
Apogee altitude
540.819 km
Perigee altitude
539.254 km
Semi-major axis
6,918.173 km
Eccentricity
0.00011
Inclination
53.1814°
RAAN
184.6532°
Arg. of periapsis
84.1157°
True anomaly
275.98351°
Mean anomaly
275.9964°
Eccentric anomaly
275.98996°
Mean motion
3.77186 °/min
Orbital period
95.44 mins
BSTAR
0.000095893
Loading maneuver chart data...
Computing Atmospheric mass density...
Loading historical data...
Loading historical data...
Loading historical data...
Loading historical data...
Loading historical data...
Loading historical data...
Loading historical data...

Documentation

Showing up to 5 results
|